OBJECT A

Satellite information

Favourite Embed

Satellite Type and Status

UNKNOWNIN ORBIT

Key statistics

Satellite OBJECT A at a glance.

Uptime

446

Days in orbit

Revolutions

≈ 15.4

Per day

Orbit

SSO

Sun Synchronous Orbit

Inclination

97.4

Latest

Satellite identification and parameters

Extended collection of information and parameters for OBJECT A.

Object identification

Identified? True

Debris? False

Object name: OBJECT A

International designator: 2024-173A

Object number (NORAD): 61227

Object ID (CCSDS): 61227

Country: PEOPLES REPUBLIC OF CHINA (PRC)

Current information (Y/N): Y

RCS size: MEDIUM

Orbital parameters

Period: 93.236 minutes

Inclination: 97.3608 deg

SMA: 6811.066 km

Apoapsis: 436.182 km

Periapsis: 429.679 km

RAAN: 65.238 deg

Eccentricy: 0.00047735

Argument of periapsis: 201.9911 deg

Mean anomaly: 158.1134 deg

Mean motion: 15.44472456 rev/day

Mean motion (dot): 0.00045602 rev/day2

B* drag term: 0.00098184611 1/REarth

Two-line elements (TLE)

Creation date: Dec. 14, 2025, 3:07 a.m.

Reference frame: TEME

Reference center: EARTH

Epoch: Dec. 13, 2025, 5:03 p.m. UTC

TLE line 0: 0 OBJECT A

TLE line 1: 1 61227U 24173A 25347.71081105 .00045602 00000-0 98185-3 0 9990

TLE line 2: 2 61227 97.3608 65.2380 0004773 201.9911 158.1134 15.44472456 68224

Live tracking on map

Real-time ground track for satellite OBJECT A.

In-orbit conjunctions

There are no conjunctions computed for OBJECT A, at the moment. Check back to stay up to date, as we update our databases every day.

Go to all conjunctions

Associated space launch

Carried 8 satellites to a 500 km Sun-synchronous orbit: * Tianyi-41 * Luojia 4-01 * Fudan-1 * Tianyan-15 * Jitianxing A-01 * Xingshidai-15/21/22

OBJECT A was lifted into orbit during the mission ‘Smart Dragon 3 | 8 satellites’, on board a Smart Dragon 3 space rocket.

The launch took place on Sept. 24, 2024, 2:31 a.m. from Haiyang Spaceport.

For more information about the launch, click the button.

Launch to space Smart Dragon 3 | 8 satellites
Smart Dragon 3 | 8 satellites

Agency: N/A

Status: Launch Successful

Launch date: Sept. 24, 2024, 2:31 a.m. UTC

Rocket: Smart Dragon 3

Launch pad: Haiyang Spaceport

Location: Haiyang Oriental Spaceport

...

Latest news about this satellite

News about space launch
Launch Roundup: NASA Crew-9 flies half-empty, Starlink and Chinese launches continue

NASA and SpaceX’s launch of the Crew-9 mission was center stage this week. The launch of two new International Space Station crew members took place on Saturday from the recently crew-certified Space Launch Complex 40 (SLC-40) at the Cape Canaveral Space ...

News about space launch
Jielong-3 sea launch sends 8 satellites into orbit

HELSINKI — China launched its fourth Jielong-3 solid rocket from a sea platform late Monday, putting eight remote sensing satellites into sun-synchronous orbit. The fourth Jielong-3 (Smart Dragon-3) lifted off […]


Newsletter sign-up

Weekly statistics, charts and insights to help you stay on top of the space industry.